Flag for El Salvador Weather past 2 weeks in San Salvador, El Salvador

Now
64 °F

Clear.


Feels Like: 64 °F
Forecast: 62 / 86 °F
Wind: 16 mph from North

Location: San Salvador / Ilopango

Current Time: Jan 31, 2015 at 2:52:06 AM

Latest Report: Jan 30, 2015 at 11:50 PM


Visibility: 10 mi

Pressure: 30.04 "Hg

Humidity: 78%

Dew point: 57 °F

Location of San SalvadorLocation

Historic Weather in San Salvador — Graph

°F

San Salvador temperature yesterday

Maximum temperature yesterday: 88 °F (at 1:50 PM)
Minimum temperature yesterday: 63 °F (at 5:50 AM)
Average temperature yesterday: 75 °F

Past Weeks' High & Low Weather Summary

 TemperatureHumidityPressure
High88 °F (Jan 16, 11:50 AM)100% (Jan 27, 8:50 PM)30.18 "Hg (Jan 27, 8:50 PM)
Low61 °F (Jan 28, 6:50 AM)40% (Jan 28, 1:50 PM)29.86 "Hg (Jan 28, 9:50 AM)
Average75 °F67%30.02 "Hg
* Reported Jan 15 11:50 PM — Jan 30 11:50 PM, San Salvador, Weather by CustomWeather, © 2014

Note: Actual official high and low records may vary slightly from our data, if they occured in-between our weather recording intervals... More about our weather records

Advertising

San Salvador weather history for previous 24 hours

 ConditionsComfort  
Time TempWeatherWind HumidityBarometerVisibility
11:50 PM
Jan 30
64 °FClear.16 mph78%30.04 "Hg10 mi
10:50 PM66 °FClear.14 mph73%30.04 "Hg10 mi
9:50 PM66 °FClear.9 mph73%30.07 "Hg10 mi
8:50 PM68 °FClear.9 mph73%30.07 "Hg10 mi
7:50 PM70 °FClear.12 mph69%30.04 "Hg10 mi
6:50 PM73 °FClear.14 mph65%29.98 "Hg10 mi
5:50 PM77 °FSunny.12 mph57%29.95 "Hg10 mi
4:50 PM82 °FSunny.9 mph51%29.95 "Hg10 mi
3:50 PM86 °FSunny.8 mph49%29.95 "Hg10 mi
2:50 PM88 °FPassing clouds.14 mph46%29.95 "HgN/A
1:50 PM88 °FPassing clouds.16 mph46%29.98 "HgN/A
12:50 PM86 °FSunny.14 mph49%30.01 "Hg10 mi
11:50 AM84 °FSunny.16 mph48%30.07 "Hg10 mi
10:50 AM82 °FSunny.15 mph55%30.07 "Hg10 mi
9:50 AM77 °FSunny.15 mph57%30.07 "Hg10 mi
8:50 AM72 °FSunny.14 mph69%30.07 "Hg10 mi
7:50 AM66 °FSunny.14 mph73%30.07 "Hg10 mi
6:50 AM63 °FSunny.14 mph77%30.04 "Hg10 mi
5:50 AM63 °FClear.12 mph83%30.01 "Hg10 mi
Weather by CustomWeather, © 2014

See weather overviewHow to use our weather pages